TimeEDT,TemperatureF,Dew PointF,Humidity,Sea Level PressureIn,VisibilityMPH,Wind Direction,Wind SpeedMPH,Gust SpeedMPH,PrecipitationIn,Events,Conditions,WindDirDegrees,DateUTC
12:53 AM,66.9,61.0,81,29.90,10.0,SSW,6.9,-,N/A,,Partly Cloudy,200,2011-11-04 04:53:00
1:53 AM,66.9,60.1,79,29.88,10.0,SSW,6.9,-,N/A,,Overcast,210,2011-11-04 05:53:00
2:53 AM,66.0,60.1,81,29.86,10.0,South,5.8,-,N/A,,Overcast,190,2011-11-04 06:53:00
4:53 AM,66.9,62.1,84,29.82,10.0,WSW,10.4,-,0.00,Rain,Light Rain,240,2011-11-04 08:53:00
5:25 AM,66.2,62.6,88,29.82,5.0,SW,12.7,-,0.02,Rain,Light Rain,230,2011-11-04 09:25:00
5:43 AM,66.2,62.6,88,29.82,7.0,West,8.1,-,0.02,Rain,Light Rain,270,2011-11-04 09:43:00
5:53 AM,66.0,63.0,90,29.83,5.0,NW,12.7,18.4,0.02,Rain,Light Rain,310,2011-11-04 09:53:00
6:26 AM,60.8,57.2,88,29.84,10.0,NW,10.4,-,0.01,,Overcast,320,2011-11-04 10:26:00
6:50 AM,60.8,57.2,88,29.85,10.0,NW,12.7,-,0.01,,Overcast,310,2011-11-04 10:50:00
6:53 AM,60.1,57.0,90,29.86,10.0,WNW,13.8,-,0.01,,Overcast,300,2011-11-04 10:53:00
7:53 AM,55.9,53.1,90,29.88,8.0,NW,10.4,-,N/A,,Overcast,310,2011-11-04 11:53:00
8:39 AM,51.8,48.2,88,29.91,2.0,NNW,19.6,-,0.00,Rain,Light Rain,340,2011-11-04 12:39:00
8:53 AM,51.1,48.9,92,29.91,4.0,NW,13.8,-,0.00,,Overcast,320,2011-11-04 12:53:00
9:12 AM,51.8,46.4,82,29.91,9.0,NW,13.8,-,N/A,,Overcast,310,2011-11-04 13:12:00
9:19 AM,51.8,46.4,82,29.91,10.0,NW,12.7,-,N/A,,Overcast,310,2011-11-04 13:19:00
9:53 AM,51.1,46.0,83,29.91,10.0,NW,13.8,20.7,N/A,,Mostly Cloudy,310,2011-11-04 13:53:00
10:53 AM,54.0,45.0,72,29.91,10.0,WNW,9.2,-,N/A,,Overcast,290,2011-11-04 14:53:00
11:53 AM,57.0,44.1,62,29.91,10.0,WNW,11.5,21.9,N/A,,Mostly Cloudy,300,2011-11-04 15:53:00
12:41 PM,59.0,44.6,59,29.90,10.0,NW,12.7,23.0,N/A,,Scattered Clouds,320,2011-11-04 16:41:00
12:53 PM,61.0,45.0,56,29.90,10.0,NW,12.7,19.6,N/A,,Mostly Cloudy,310,2011-11-04 16:53:00
1:09 PM,60.8,44.6,55,29.90,10.0,NW,13.8,21.9,N/A,,Mostly Cloudy,310,2011-11-04 17:09:00
1:53 PM,60.1,43.0,53,29.88,10.0,West,12.7,21.9,N/A,,Clear,280,2011-11-04 17:53:00
3:53 PM,64.9,45.0,48,29.85,10.0,NNW,12.7,24.2,N/A,,Clear,330,2011-11-04 19:53:00
4:53 PM,64.9,45.0,48,29.87,10.0,NW,12.7,-,N/A,,Clear,320,2011-11-04 20:53:00
5:53 PM,63.0,46.0,54,29.89,10.0,NNW,13.8,-,N/A,,Clear,330,2011-11-04 21:53:00
6:53 PM,61.0,46.9,60,29.93,10.0,NNW,11.5,-,N/A,,Clear,340,2011-11-04 22:53:00
7:53 PM,59.0,46.9,64,29.94,10.0,West,5.8,-,N/A,,Clear,270,2011-11-04 23:53:00
8:53 PM,55.9,46.9,72,29.96,10.0,NW,3.5,-,N/A,,Clear,310,2011-11-05 00:53:00
9:53 PM,57.9,48.0,70,29.97,10.0,NW,9.2,-,N/A,,Clear,310,2011-11-05 01:53:00
10:53 PM,57.9,48.0,70,29.99,10.0,NNW,9.2,-,N/A,,Clear,340,2011-11-05 02:53:00
11:53 PM,55.0,48.0,77,30.00,10.0,NNW,4.6,-,N/A,,Clear,340,2011-11-05 03:53:00